Wind_Speed
26 27 29 25 26 25 30 34 40 47 40 38 44 43 40 37 35 36 36 37 37 36 36 35 34 31 29 27 24 22 21 19 18 18 18 16 15 15 16 18 19 22 24
29 30 30 28 25 24 26 24 29 29 31 28 42 39 38 37 36 33 33 35 38 39 38 38 38 36 33 31 28 26 24 22 21 19 21 19 18 18 18 19 21 22 24
30 33 33 34 28 20 18 24 21 19 18 21 30 33 34 33 31 31 31 32 34 37 39 39 40 38 36 35 31 30 28 26 24 22 24 22 21 21 21 22 23 24 26
21 25 31 32 32 29 26 18 22 20 23 20 21 25 29 30 29 30 31 32 32 35 38 39 39 39 39 36 33 32 31 29 26 25 26 25 24 25 25 26 28 28 30
23 29 23 30 28 28 28 27 24 27 22 21 22 25 25 27 29 29 29 30 32 31 33 38 39 38 39 36 35 34 33 32 29 28 29 27 27 26 26 28 30 32 32
15 20 28 26 30 29 29 26 27 25 23 20 24 24 25 25 25 25 27 28 30 31 33 31 36 38 38 38 37 36 34 33 31 30 30 28 27 27 27 28 30 31 33
10 13 18 24 30 31 31 28 30 25 30 24 23 26 28 25 24 25 25 26 28 30 30 30 31 34 37 38 37 37 37 36 34 32 30 29 29 28 28 27 27 29 30
6 9 11 14 26 33 34 33 34 32 29 27 23 24 25 25 24 26 26 26 27 28 29 29 29 30 32 35 37 39 38 37 35 33 31 29 30 29 27 25 26 28 29
2 5 7 10 15 25 31 34 34 33 31 28 26 26 26 23 21 21 22 24 26 25 26 27 27 28 29 31 34 36 36 36 34 32 31 30 29 28 26 23 23 26 30
4 5 7 8 11 16 26 34 34 34 35 32 32 30 25 22 22 23 24 26 26 27 27 27 28 28 26 29 33 36 36 35 34 33 32 30 26 24 22 21 20 23 27
7 7 8 10 10 12 16 25 31 33 31 29 27 27 26 24 23 25 28 28 26 26 27 27 25 24 25 28 29 31 32 31 33 31 28 26 24 22 20 19 20 22 23
9 7 8 10 12 13 14 16 22 26 26 27 27 26 27 27 25 26 27 26 25 24 24 23 22 21 21 22 24 24 28 28 32 30 28 25 22 20 18 19 20 20 22
11 7 7 10 11 12 15 17 18 20 22 24 24 23 23 24 25 26 24 22 22 22 20 19 19 20 20 19 21 23 26 28 31 30 27 23 20 19 18 17 18 18 20
13 10 6 7 10 12 14 15 17 19 21 22 24 25 25 24 26 24 25 25 22 21 21 23 22 19 19 21 22 23 23 26 28 26 24 22 18 18 16 14 17 20 21
13 10 7 5 9 11 12 14 17 19 20 21 22 23 23 24 22 20 23 24 23 23 24 22 20 21 22 25 28 27 25 26 25 24 21 18 18 13 13 15 17 19 21
13 10 7 4 6 9 11 13 14 16 18 19 20 20 19 18 18 18 21 22 22 24 23 23 23 25 27 30 31 28 25 23 21 21 21 18 15 11 10 12 16 19 21
16 12 9 6 5 8 10 12 14 15 15 16 17 17 18 18 19 19 19 21 23 24 21 22 25 28 29 30 29 27 24 22 21 20 16 12 9 8 8 12 15 18 21
16 14 12 9 6 6 9 11 13 13 14 14 15 16 16 16 17 16 18 22 24 24 22 23 26 27 27 30 30 25 23 21 18 15 12 10 7 7 9 11 13 17 20
15 14 11 8 7 7 8 10 12 12 13 14 13 13 15 14 15 17 20 25 29 28 24 22 23 25 26 29 29 24 22 19 16 13 11 9 6 7 8 10 13 15 19
12 11 11 7 7 8 9 10 11 12 12 12 14 14 15 17 21 25 30 26 25 24 23 21 21 22 24 27 25 22 20 17 15 12 9 7 7 7 8 10 13 17 19
13 10 7 6 8 9 8 9 10 11 11 12 13 14 16 21 26 31 34 30 26 25 23 21 20 23 25 25 22 20 18 16 13 10 9 8 7 7 8 9 14 16 18
10 8 7 7 6 5 6 8 8 9 11 11 11 13 17 21 24 29 33 29 23 24 20 18 21 24 24 22 21 18 16 13 12 10 9 9 7 6 8 10 14 15 17
9 7 5 4 3 1 3 5 6 7 8 11 13 16 17 19 22 29 32 29 24 22 18 20 23 25 24 22 20 18 15 12 10 9 9 8 7 7 9 12 14 15 19
8 8 8 7 5 3 1 3 6 8 10 11 15 15 17 20 25 31 30 26 22 21 21 22 22 21 20 18 17 15 13 10 8 8 8 6 6 8 11 13 12 16 18
7 7 7 5 5 2 3 7 10 13 15 16 14 15 20 26 29 28 27 25 24 23 22 21 20 19 18 17 16 14 13 10 8 7 7 4 7 9 11 12 13 14 14
5 5 4 3 2 2 5 9 12 14 15 14 16 21 27 30 29 28 25 23 22 22 21 20 18 17 16 15 12 9 7 6 7 8 5 7 10 10 11 12 12 14 14
Wind_Direction
229 227 231 218 218 216 216 210 215 207 203 215 205 207 209 211 216 219 222 223 226 227 229 231 234 236 238 242 245 248 250 252 256 259 264 269 273 275 280 287 293 305 307
208 221 226 216 214 220 211 198 201 195 216 223 212 210 213 215 217 219 225 228 228 230 231 233 235 236 237 241 244 249 250 252 256 260 264 265 271 273 278 282 291 302 307
194 211 221 218 199 195 206 203 200 199 205 213 213 216 218 220 223 225 230 234 235 237 238 237 238 239 240 242 245 249 250 252 254 258 262 266 270 272 276 279 288 298 304
194 186 206 218 211 213 221 206 204 211 211 228 220 215 220 223 226 228 229 235 237 239 241 241 241 242 244 244 247 249 251 251 254 256 259 263 267 272 279 283 289 296 301
194 203 193 204 214 219 222 222 209 208 216 220 224 220 222 222 223 225 228 234 236 243 247 243 242 242 245 245 247 247 250 251 252 254 257 262 266 273 279 286 293 297 302
168 183 198 201 207 211 214 214 207 208 217 215 222 226 229 227 227 230 233 237 239 241 242 246 244 242 242 242 243 244 246 250 252 254 257 261 266 272 277 286 293 300 306
152 167 182 196 203 213 221 227 223 215 215 221 236 224 225 226 229 233 238 240 240 240 241 243 245 241 240 241 241 242 243 244 247 250 254 258 263 269 275 282 290 296 305
153 167 171 179 194 208 222 229 225 217 212 224 229 236 228 224 222 222 227 232 237 239 241 243 245 244 241 241 240 242 241 243 245 250 254 258 262 267 272 278 288 297 304
213 192 187 187 190 204 212 218 217 218 210 214 221 235 240 230 225 225 229 235 236 240 242 243 246 248 245 240 238 242 241 242 242 245 250 254 258 264 270 281 291 303 309
294 253 218 205 193 195 207 217 213 219 213 216 222 224 222 229 234 233 235 241 241 241 242 241 242 245 243 241 239 237 237 238 240 241 243 249 254 259 271 281 292 304 313
320 268 239 223 212 204 202 212 217 213 220 216 216 220 228 226 228 230 233 237 238 239 239 239 241 243 242 241 239 237 237 236 236 237 237 243 250 257 267 279 294 303 308
330 291 251 233 222 216 205 209 210 213 214 220 227 222 224 228 226 234 236 235 234 234 235 236 237 238 237 240 237 232 227 228 232 232 234 237 243 251 261 279 293 297 305
337 310 258 231 226 224 217 214 210 209 215 217 217 223 232 233 233 237 238 234 230 230 229 228 228 231 233 229 232 226 225 223 226 225 228 232 237 246 268 280 284 293 302
338 327 295 246 227 225 224 219 214 215 218 222 222 222 226 226 223 226 225 227 224 219 217 217 218 220 223 219 213 217 223 223 223 222 222 225 234 260 271 274 289 297 301
337 332 319 275 231 226 225 216 215 217 217 219 221 222 224 225 227 229 227 224 222 220 214 212 208 204 204 206 212 215 208 211 213 214 218 228 249 248 263 281 291 302 313
338 340 330 287 240 227 227 227 222 222 222 224 225 225 222 224 224 223 224 221 220 222 212 208 206 209 212 211 212 206 204 206 208 215 227 232 236 248 264 286 301 310 315
337 335 333 316 264 231 229 227 229 229 227 228 228 230 230 228 222 217 218 221 216 218 213 209 211 211 211 212 213 212 209 211 218 224 227 223 218 244 274 292 300 310 314
336 332 324 319 295 251 232 231 229 229 227 225 228 230 229 225 222 212 211 210 205 213 218 211 208 210 212 209 206 209 209 210 210 209 209 217 222 255 278 292 307 316 321
332 327 316 312 298 273 253 237 232 228 225 225 222 221 218 216 211 204 209 211 201 205 204 205 209 210 209 207 205 207 208 206 205 203 197 218 235 259 286 303 316 326 327
327 321 316 304 303 286 263 242 231 224 222 221 216 211 206 194 185 191 200 207 211 211 208 204 205 208 207 203 203 203 200 198 193 199 200 210 238 260 287 309 323 329 331
328 309 298 279 285 277 262 240 227 217 212 215 215 208 204 198 191 197 199 207 207 205 203 201 198 199 197 197 198 196 195 196 192 190 205 209 234 267 294 316 327 332 333
325 312 291 290 285 254 239 224 215 211 204 204 206 202 208 206 205 205 201 204 204 202 197 196 190 190 191 191 190 187 180 179 184 194 212 223 243 286 308 319 329 334 339
338 343 350 350 325 266 215 208 205 203 205 199 204 211 203 206 204 199 194 195 194 192 186 183 182 180 179 178 176 178 184 189 194 201 213 224 254 290 309 324 334 339 340
352 2 5 3 355 353 314 181 186 200 199 199 196 195 194 192 190 185 182 180 179 176 172 174 176 178 176 175 175 175 171 175 190 206 212 221 270 295 317 326 333 338 342
7 13 5 351 355 15 174 183 187 191 188 189 186 182 180 179 172 167 166 164 167 167 164 167 168 167 167 171 171 168 168 179 192 207 207 247 292 303 315 320 330 339 348
13 18 12 22 59 124 165 177 177 176 175 174 167 168 166 160 155 154 157 158 161 161 162 164 164 168 167 163 163 158 158 186 202 189 211 273 281 297 308 320 330 338 343
Height
1407 1410 1414 1419 1422 1427 1432 1437 1441 1448 1456 1463 1471 1480 1485 1491 1497 1503 1508 1513 1519 1523 1528 1532 1535 1540 1543 1547 1550 1552 1555 1557 1557 1558 1559 1560 1560 1560 1560 1560 1558 1556 1554
1399 1405 1410 1417 1422 1425 1429 1434 1438 1445 1453 1459 1466 1473 1479 1487 1492 1496 1501 1506 1510 1515 1520 1524 1528 1533 1536 1541 1542 1547 1551 1551 1552 1551 1554 1554 1554 1555 1554 1554 1553 1551 1549
1394 1399 1407 1411 1419 1423 1427 1433 1436 1441 1448 1455 1460 1467 1474 1480 1484 1490 1495 1500 1503 1508 1514 1516 1521 1526 1530 1533 1536 1541 1545 1545 1546 1546 1549 1549 1549 1549 1547 1548 1548 1546 1543
1391 1396 1403 1407 1414 1420 1426 1430 1433 1439 1447 1450 1458 1463 1470 1474 1478 1484 1489 1493 1497 1500 1505 1510 1513 1517 1522 1527 1529 1535 1539 1539 1539 1541 1543 1542 1543 1542 1541 1541 1540 1539 1536
1389 1394 1398 1404 1408 1416 1420 1426 1431 1437 1443 1448 1455 1460 1464 1467 1471 1476 1480 1483 1488 1492 1496 1501 1505 1510 1516 1518 1523 1527 1532 1532 1532 1534 1537 1537 1537 1536 1535 1534 1532 1531 1528
1387 1390 1394 1399 1403 1409 1416 1422 1427 1433 1439 1444 1451 1453 1457 1460 1465 1469 1473 1476 1479 1484 1488 1493 1498 1503 1507 1510 1514 1517 1522 1524 1525 1527 1529 1531 1531 1530 1530 1528 1526 1524 1522
1382 1386 1391 1395 1398 1404 1411 1417 1421 1427 1433 1437 1444 1447 1451 1454 1459 1462 1466 1468 1471 1475 1480 1485 1491 1493 1497 1502 1506 1508 1512 1515 1517 1521 1521 1524 1524 1523 1523 1521 1521 1519 1515
1381 1384 1387 1390 1394 1399 1404 1410 1416 1422 1425 1431 1438 1443 1446 1451 1454 1458 1460 1462 1466 1470 1473 1478 1482 1485 1488 1492 1497 1499 1504 1506 1509 1513 1516 1517 1517 1518 1516 1515 1514 1512 1509
1380 1381 1383 1386 1389 1392 1398 1402 1408 1412 1416 1423 1429 1435 1439 1444 1447 1450 1451 1455 1460 1461 1465 1469 1475 1477 1480 1484 1487 1490 1496 1500 1502 1507 1509 1509 1509 1511 1511 1510 1509 1507 1502
1379 1380 1380 1382 1384 1387 1391 1397 1401 1405 1413 1417 1422 1428 1432 1438 1441 1442 1443 1448 1451 1457 1461 1464 1468 1470 1474 1475 1477 1481 1485 1490 1494 1499 1499 1502 1503 1503 1504 1504 1503 1502 1499
1380 1381 1380 1381 1381 1385 1387 1391 1395 1401 1406 1409 1415 1420 1424 1429 1434 1437 1438 1443 1448 1451 1456 1458 1462 1465 1466 1467 1471 1475 1479 1485 1488 1492 1493 1495 1497 1497 1495 1497 1498 1497 1494
1379 1378 1379 1379 1381 1383 1384 1389 1391 1393 1397 1402 1408 1412 1417 1420 1426 1430 1434 1438 1442 1446 1449 1452 1455 1458 1459 1461 1465 1469 1471 1478 1482 1486 1487 1489 1491 1493 1491 1492 1492 1492 1490
1380 1380 1378 1378 1377 1380 1383 1387 1387 1388 1393 1398 1402 1407 1410 1414 1418 1424 1429 1433 1435 1440 1442 1444 1447 1452 1453 1456 1459 1463 1466 1470 1476 1477 1482 1485 1487 1489 1488 1488 1488 1487 1486
1379 1378 1375 1372 1373 1377 1381 1381 1382 1385 1390 1394 1399 1404 1410 1413 1415 1418 1424 1427 1430 1433 1434 1439 1442 1444 1448 1452 1456 1458 1461 1467 1472 1474 1478 1479 1481 1484 1484 1484 1484 1481 1481
1378 1376 1374 1371 1372 1373 1377 1378 1380 1384 1387 1391 1396 1399 1402 1406 1410 1411 1416 1419 1425 1428 1430 1432 1435 1438 1442 1445 1448 1453 1458 1462 1467 1472 1475 1476 1477 1479 1479 1480 1479 1476 1474
1378 1375 1373 1371 1369 1369 1371 1374 1377 1380 1380 1384 1388 1393 1396 1401 1402 1405 1411 1417 1419 1422 1423 1427 1430 1434 1436 1440 1445 1449 1455 1460 1466 1469 1470 1471 1473 1474 1474 1475 1474 1472 1469
1373 1372 1370 1369 1367 1368 1368 1372 1374 1376 1377 1380 1384 1388 1392 1396 1397 1401 1405 1412 1414 1417 1419 1422 1425 1430 1433 1437 1442 1448 1452 1457 1461 1464 1467 1468 1469 1471 1471 1471 1469 1467 1466
1370 1367 1367 1364 1364 1364 1366 1368 1371 1372 1373 1376 1379 1383 1387 1390 1394 1398 1402 1407 1410 1414 1416 1417 1422 1427 1431 1436 1441 1445 1448 1453 1457 1460 1463 1465 1467 1467 1467 1466 1465 1463 1460
1368 1368 1367 1364 1363 1362 1362 1363 1367 1368 1369 1372 1374 1378 1382 1387 1390 1394 1399 1404 1406 1407 1410 1416 1421 1425 1429 1435 1440 1443 1447 1450 1454 1457 1460 1461 1462 1463 1463 1463 1461 1459 1457
1367 1366 1365 1363 1361 1361 1361 1361 1361 1363 1365 1369 1372 1375 1379 1384 1388 1392 1396 1400 1403 1406 1410 1414 1417 1422 1429 1434 1438 1442 1445 1449 1451 1454 1456 1457 1459 1460 1460 1460 1458 1456 1454
1366 1367 1365 1364 1361 1358 1357 1358 1359 1360 1361 1366 1371 1373 1377 1381 1383 1387 1391 1397 1401 1404 1408 1412 1415 1421 1426 1431 1436 1440 1444 1447 1450 1452 1454 1455 1456 1456 1457 1456 1454 1452 1450
1368 1366 1364 1358 1357 1355 1355 1356 1355 1358 1359 1361 1367 1371 1374 1378 1381 1385 1390 1397 1402 1406 1407 1411 1415 1420 1425 1429 1433 1437 1441 1444 1447 1450 1452 1453 1454 1454 1454 1453 1451 1449 1446
1362 1360 1356 1354 1354 1351 1353 1354 1354 1356 1358 1360 1364 1369 1371 1375 1377 1384 1388 1395 1401 1407 1407 1410 1414 1419 1424 1427 1431 1434 1439 1442 1444 1447 1450 1451 1452 1451 1451 1450 1447 1445 1442
1359 1355 1353 1351 1351 1351 1351 1350 1352 1358 1361 1362 1364 1366 1369 1373 1377 1382 1388 1393 1402 1406 1407 1411 1416 1420 1424 1428 1431 1434 1436 1439 1442 1445 1447 1448 1448 1449 1448 1446 1444 1442 1440
1357 1355 1355 1355 1354 1353 1353 1355 1357 1362 1363 1364 1360 1360 1368 1375 1381 1383 1390 1394 1403 1407 1408 1414 1418 1421 1424 1428 1431 1433 1435 1437 1440 1442 1444 1445 1445 1445 1444 1442 1441 1439 1437
1358 1357 1357 1358 1357 1356 1358 1361 1361 1361 1360 1360 1360 1367 1375 1378 1383 1387 1394 1398 1403 1407 1411 1416 1419 1423 1424 1426 1431 1432 1433 1436 1438 1438 1440 1442 1442 1441 1440 1439 1437 1436 1434